Weather History for DeKalb, IL

Change the Weather History Date:

Thursday, January 9, 2014

  Actual Average (KARR) Record (KARR)
Temperature  
Mean Temperature 11 °F 21 °F  
Max Temperature 24 °F 29 °F 55 °F (2002)
Min Temperature -1 °F 13 °F -12 °F (1999)
Degree Days  
Heating Degree Days 54 44  
Month to date heating degree days 394  
Since 1 July heating degree days 3043  
Cooling Degree Days 0 0  
Month to date cooling degree days 0  
Year to date cooling degree days 0  
Moisture  
Dew Point 15 °F    
Average Humidity 88    
Maximum Humidity 99    
Minimum Humidity 78    
Precipitation  
Precipitation 0.00 in 0.04 in 0.07 in (2005)
Month to date precipitation 0.37  
Year to date precipitation 0.37  
Sea Level Pressure  
Sea Level Pressure 30.29 in    
Wind  
Wind Speed 6 mph (SE)    
Max Wind Speed 14 mph    
Max Gust Speed -    
T = Trace of Precipitation, MM = Missing Value Source: NWS Daily Summary

Daily Weather History Graph

Daily Weather History Graph

Search for Another Location

Airport:

Trip Planner

Search our weather history database for the weather conditions in past years. The results will help you decide how hot, cold, wet, or windy it might be!

Date:

Astronomy

Jan. 09, 2014 Rise Set
Actual Time 7:22 AM CST 4:42 PM CST
Civil Twilight 6:51 AM CST 5:13 PM CST
Nautical Twilight 6:16 AM CST 5:48 PM CST
Astronomical Twilight 5:42 AM CST 6:21 PM CST
Moon 12:11 PM CST (1/9) 1:27 AM CST (1/9)
Length of Visible Light 10h 22m
Length of Day
9h 19m
Waxing Gibbous, 66% of the Moon is Illuminated
Jan 9
Waxing Gibbous
Jan 15
Full
Jan 23
Last Quarter
Jan 30
New
Feb 6
First Quarter

Hourly Weather History & Observations

Time (CST) Temp. Windchill Dew Point Humidity Pressure Visibility Wind Dir Wind Speed Gust Speed Precip Events Conditions
12:15 AM -1.7 °F - -6.2 °F 81% 30.48 in - Calm Calm - N/A   Unknown
12:35 AM - - - N/A% 30.48 in - Calm Calm - N/A   Unknown
12:55 AM - - - N/A% 30.48 in - Calm Calm - N/A   Unknown
1:15 AM - - - N/A% 30.48 in - NE 3.5 mph - N/A   Unknown
1:35 AM - - - N/A% 30.48 in - NE 3.5 mph - N/A   Unknown
1:55 AM - - - N/A% - - Calm Calm - N/A   Unknown
2:15 AM - - - N/A% - - East 3.5 mph - N/A   Unknown
3:35 AM - - - N/A% - - North - - N/A   Unknown
3:55 AM - - - N/A% - - North - - N/A   Unknown
4:15 AM - - - N/A% - - North - - N/A   Unknown
4:35 AM - - - N/A% - - North - - N/A   Unknown
4:55 AM - - - N/A% - - North - - N/A   Unknown
5:15 AM - - - N/A% - - North - - N/A   Unknown
5:35 AM - - - N/A% - - North - - N/A   Unknown
5:55 AM - - - N/A% - - North - - N/A   Unknown
6:15 AM - - - N/A% - - North - - N/A   Unknown
6:35 AM - - - N/A% - - North - - N/A   Unknown
6:55 AM - - - N/A% 30.43 in - East 5.8 mph - N/A   Unknown
7:15 AM - - - N/A% 30.43 in - East 4.6 mph - N/A   Overcast
7:35 AM - - - N/A% - - North - - N/A   Unknown
7:55 AM 6.8 °F -5.9 °F 2.5 °F 82% 30.42 in - ESE 8.1 mph - N/A   Unknown
8:15 AM 8.6 °F -5.5 °F 3.9 °F 81% 30.42 in - ESE 10.4 mph - N/A   Overcast
8:35 AM 9.0 °F -4.2 °F 4.3 °F 81% 30.42 in - SE 9.2 mph - N/A   Overcast
8:55 AM 10.4 °F -4.1 °F 5.0 °F 79% 30.41 in - ESE 11.5 mph - N/A   Overcast
9:15 AM 10.4 °F -2.4 °F 5.2 °F 79% 30.41 in - ESE 9.2 mph - N/A   Overcast
9:35 AM 11.5 °F -1.9 °F 6.1 °F 79% 30.41 in - ESE 10.4 mph - N/A   Overcast
9:55 AM 12.7 °F -1.1 °F 7.3 °F 79% 30.40 in - ESE 11.5 mph - N/A   Overcast
10:15 AM 12.9 °F 0.7 °F 7.2 °F 78% 30.39 in - ESE 9.2 mph - N/A   Overcast
10:35 AM 13.1 °F 0.9 °F 7.7 °F 79% 30.39 in - SE 9.2 mph - N/A   Overcast
10:55 AM 14.0 °F 2.0 °F 8.6 °F 79% 30.38 in - SE 9.2 mph - N/A   Overcast
11:15 AM 14.9 °F 2.3 °F 9.3 °F 79% 30.36 in - SE 10.4 mph - N/A   Overcast
11:35 AM 14.9 °F 2.3 °F 9.5 °F 79% 30.35 in - SE 10.4 mph - N/A   Overcast
11:55 AM 15.4 °F 3.0 °F 10.2 °F 80% 30.33 in - SE 10.4 mph - N/A   Overcast
12:15 PM 16.0 °F 2.9 °F 10.9 °F 81% 30.32 in - SE 11.5 mph - N/A   Overcast
12:35 PM 16.3 °F 3.4 °F 11.3 °F 81% 30.32 in - SSE 11.5 mph - N/A   Overcast
12:55 PM 16.5 °F 4.3 °F 12.6 °F 84% 30.32 in - ESE 10.4 mph - N/A   Unknown
1:15 PM 17.1 °F 7.6 °F 13.5 °F 86% 30.30 in - SSE 6.9 mph - N/A   Overcast
1:35 PM 17.2 °F 6.8 °F 14.0 °F 87% 30.28 in - SE 8.1 mph - N/A   Unknown
1:55 PM 17.2 °F 6.0 °F 14.0 °F 87% 30.27 in - SE 9.2 mph - N/A   Unknown
2:35 PM 18.1 °F 7.9 °F 14.9 °F 87% 30.26 in - ESE 8.1 mph - N/A   Overcast
2:55 PM 18.5 °F 7.5 °F 15.4 °F 88% 30.25 in - SE 9.2 mph - N/A   Unknown
3:15 PM 19.0 °F 6.8 °F 16.3 °F 89% 30.25 in - SE 11.5 mph - N/A   Unknown
3:35 PM 19.2 °F 9.3 °F 16.5 °F 89% 30.25 in - SE 8.1 mph - N/A   Unknown
3:55 PM 19.2 °F 9.3 °F 16.7 °F 90% 30.25 in - ESE 8.1 mph - N/A   Unknown
4:15 PM 19.2 °F 8.4 °F 16.7 °F 90% 30.24 in - ESE 9.2 mph - N/A   Overcast
5:35 PM 20.5 °F 10.0 °F 18.5 °F 92% 30.21 in - ESE 9.2 mph - N/A   Unknown
5:55 PM 21.0 °F 9.9 °F 18.9 °F 91% 30.21 in - SE 10.4 mph - N/A   Unknown
6:15 PM 21.0 °F 8.6 °F 19.0 °F 92% 30.21 in - SE 12.7 mph - N/A   Overcast
6:35 PM 21.0 °F 8.6 °F 19.2 °F 93% 30.21 in - SE 12.7 mph - N/A   Unknown
6:55 PM 21.2 °F 8.3 °F 19.4 °F 93% 30.20 in - SE 13.8 mph - N/A   Unknown
7:15 PM 21.2 °F 8.9 °F 19.4 °F 93% 30.20 in - SE 12.7 mph - N/A   Overcast
7:35 PM 21.6 °F 9.9 °F 19.8 °F 93% 30.20 in - SE 11.5 mph - N/A   Overcast
7:55 PM 21.6 °F 9.3 °F 19.9 °F 93% 30.19 in - SE 12.7 mph - N/A   Overcast
8:15 PM 21.6 °F 11.3 °F 20.1 °F 94% 30.19 in - SE 9.2 mph - N/A   Overcast
8:35 PM 21.7 °F 11.5 °F 20.3 °F 94% 30.18 in - SSE 9.2 mph - N/A   Overcast
8:55 PM 21.7 °F 10.8 °F 20.3 °F 94% 30.17 in - SSE 10.4 mph - N/A   Overcast
9:15 PM 21.9 °F 11.7 °F 20.5 °F 94% 30.17 in - SSE 9.2 mph - N/A   Overcast
9:35 PM 22.1 °F 12.0 °F 21.0 °F 96% 30.16 in - SSE 9.2 mph - N/A   Overcast
9:55 PM 22.6 °F 12.6 °F 21.2 °F 94% 30.16 in - SSE 9.2 mph - N/A   Overcast
10:15 PM 23.0 °F 13.1 °F 21.7 °F 95% 30.15 in - SSE 9.2 mph - N/A   Overcast
10:35 PM 23.5 °F 13.0 °F 22.3 °F 95% 30.14 in - South 10.4 mph - N/A   Overcast
10:55 PM 23.7 °F 14.7 °F 23.0 °F 97% 30.14 in - South 8.1 mph - N/A   Overcast
11:15 PM 23.9 °F 15.0 °F 23.4 °F 98% 30.14 in - South 8.1 mph - N/A   Overcast
11:35 PM 23.9 °F 15.8 °F 23.5 °F 99% 30.13 in - South 6.9 mph - N/A   Overcast
11:55 PM 24.6 °F 15.8 °F 23.9 °F 97% 30.12 in - South 8.1 mph - N/A   Overcast